This is the latest recevied weather packets stored in our database for station/object JA3YAI-13. If no packets are shown the sender has not sent any weather packets the latest 10 day(s).
| Time | Temp. | Humidity | Pressure | Rain* | Wind** | Luminosity | Snow |
|---|---|---|---|---|---|---|---|
| 1777592784 | 15° C | 99% | 994.5 hPa | 0.25 mm | - | - | - |
| 1777592184 | 15.56° C | 99% | 994.4 hPa | 0.25 mm | - | - | - |
| 1777591585 | 15.56° C | 99% | 994.5 hPa | 0.51 mm | - | - | - |
| 1777590985 | 15° C | 99% | 994.1 hPa | 1.02 mm | - | - | - |
| 1777590384 | 15° C | 99% | 994.2 hPa | 1.27 mm | - | - | - |
| 1777589784 | 15° C | 99% | 994.5 hPa | 2.03 mm | - | - | - |
| 1777589184 | 15° C | 99% | 994.2 hPa | 3.81 mm | - | - | - |
| 1777588585 | 15° C | 99% | 994 hPa | 3.81 mm | - | - | - |
| 1777587985 | 15° C | 99% | 993.8 hPa | 3.56 mm | - | - | - |
| 1777587384 | 15.56° C | 99% | 993.9 hPa | 3.3 mm | - | - | - |
| 1777586784 | 15.56° C | 99% | 993.8 hPa | 3.05 mm | - | - | - |
| 1777586184 | 15.56° C | 99% | 994 hPa | 2.03 mm | - | - | - |
| 1777585585 | 15° C | 99% | 992.7 hPa | 0.25 mm | - | - | - |
| 1777584985 | 15° C | 99% | 992.9 hPa | 0.25 mm | - | - | - |
| 1777584385 | 15° C | 99% | 993.1 hPa | 0.25 mm | - | - | - |
| 1777583784 | 15° C | 99% | 993.3 hPa | 0.25 mm | - | - | - |
| 1777583184 | 15° C | 99% | 993.2 hPa | 0 mm | - | - | - |
| 1777582584 | 15° C | 99% | 993.2 hPa | 0 mm | - | - | - |
| 1777581985 | 15° C | 99% | 993.2 hPa | 0 mm | - | - | - |
| 1777581385 | 15° C | 99% | 993.2 hPa | 0 mm | - | - | - |
| 1777580785 | 15° C | 99% | 993.7 hPa | 0 mm | - | - | - |
| 1777580184 | 15° C | 99% | 993.9 hPa | 0 mm | - | - | - |
| 1777579584 | 14.44° C | 99% | 993.9 hPa | 1.02 mm | - | - | - |
| 1777578985 | 14.44° C | 99% | 994.1 hPa | 1.27 mm | - | - | - |
| 1777578385 | 14.44° C | 99% | 993.7 hPa | 1.27 mm | - | - | - |
* Rain latest hour (hover to see other rain measurements)
** Current wind speed in m/s (hover to see current wind gust speed)